[[{"header":{"parameterUnit":"m.s-1","parameterCategory":1,"la1":30.2992,"la2":30.254,"lo1":-89.0895,"lo2":-89.0443,"dy":0.0025,"dx":0.0025,"nx":19,"ny":19,"refTime":"2026-05-23T03:00:00:Z","depth":0,"parameterNumber":2,"parameterNumberName":"U-component_of_WINDS"},"data":[0,0,0,-1.5765,-1.5761,-1.5523,-1.5522,-1.526,-1.5258,0,0,0,0,0,0,0,0,0,0,0,-1.5863,-1.5862,-1.5765,-1.576,-1.5523,-1.5522,-1.526,-1.5258,0,0,0,0,0,0,0,0,0,0,0,-1.5863,-1.5863,-1.5862,-1.5759,-1.5524,-1.5522,-1.526,-1.5424,0,0,0,0,0,0,0,0,0,0,-1.5647,-1.5766,-1.5863,-1.5861,-1.5758,-1.5524,-1.5522,-1.5431,-1.5414,-1.5386,0,-1.537,0,-1.531,-1.5243,-1.5242,0,0,0,-1.5739,-1.578,-1.5692,-1.5861,-1.5756,-1.5524,-1.5624,-1.5421,-1.5402,-1.5363,-1.5366,-1.5355,-1.5306,-1.5242,-1.524,-1.5155,-1.5156,0,0,-1.5752,-1.5835,-1.5705,-1.568,-1.5723,-1.5632,-1.5617,-1.5409,-1.5417,-1.5365,-1.5348,-1.5302,-1.524,-1.5238,-1.5155,-1.5155,0,0,0,-1.5804,-1.5845,-1.576,-1.5692,-1.5647,-1.5626,-1.5608,-1.5426,-1.5391,-1.5345,-1.5299,-1.5239,-1.5236,-1.5154,-1.5155,-1.5268,0,0,0,-1.5811,-1.5875,-1.5767,-1.5815,-1.5652,-1.5534,-1.5631,-1.5406,-1.538,-1.53,-1.5239,-1.5234,-1.5153,-1.5154,-1.5263,-1.5308,0,0,0,-1.5869,-1.5881,-1.5857,-1.582,-1.5721,-1.5535,-1.5488,-1.5398,-1.5352,-1.5242,-1.5233,-1.5152,-1.5154,-1.5259,-1.53,-1.5311,0,0,0,-1.5954,-1.5959,-1.586,-1.5847,-1.5724,-1.5608,-1.5488,-1.5396,-1.5315,-1.5238,-1.5153,-1.5155,-1.5257,-1.5296,-1.5307,-1.5336,-1.5355,0,0,-1.6007,-1.5969,-1.5954,-1.5858,-1.5782,-1.5637,-1.5574,-1.542,-1.5331,-1.5218,-1.5215,-1.5265,-1.53,-1.531,-1.5433,-1.545,0,0,0,-1.5998,-1.599,-1.5951,-1.5879,-1.5763,-1.5666,-1.5512,-1.5455,-1.5355,-1.5292,-1.5267,-1.5286,-1.5288,-1.5298,-1.5312,-1.5309,-1.5163,-1.5162,-1.5162,-1.6193,-1.6081,-1.605,-1.5911,-1.5842,-1.5683,-1.5616,-1.5511,-1.5417,-1.5413,-1.538,-1.5469,-1.5484,-1.5494,-1.5492,-1.5384,-1.5385,-1.5385,-1.5385,-1.626,-1.6231,-1.6106,-1.6032,-1.5913,-1.5848,-1.5694,-1.563,-1.5551,-1.5485,-1.5481,-1.5421,-1.5515,-1.5508,-1.5393,-1.5391,-1.5391,-1.539,-1.5389,-1.6377,-1.6344,-1.6275,-1.6159,-1.6081,-1.5936,-1.5867,-1.576,-1.5658,-1.5654,-1.5607,-1.5605,-1.5591,-1.5639,-1.5639,-1.564,-1.564,-1.564,-1.564,-1.6527,-1.6445,-1.6401,-1.6278,-1.6217,-1.6123,-1.5963,-1.5899,-1.58,-1.5728,-1.5727,-1.5634,-1.5545,-1.5526,-1.5645,-1.5644,-1.5643,-1.5643,-1.5643,-1.6641,-1.6598,-1.6531,-1.6471,-1.6316,-1.6246,-1.6109,-1.5988,-1.5919,-1.5888,-1.5794,-1.5745,-1.5698,-1.5686,-1.567,-1.5818,-1.5818,-1.5818,-1.5818,-1.6742,-1.6707,-1.6614,-1.6525,-1.6424,-1.6293,-1.6218,-1.6092,-1.5955,-1.5905,-1.5867,-1.5835,-1.5828,-1.5784,-1.577,-1.5753,-1.592,-1.592,-1.592,-1.6807,-1.6757,-1.6716,-1.6584,-1.6454,-1.6345,-1.6271,-1.617,-1.6004,-1.5922,-1.5863,-1.5859,-1.5806,-1.5795,-1.5715,-1.5696,-1.5662,0,0]},{"header":{"parameterUnit":"m.s-1","parameterCategory":1,"la1":30.2992,"la2":30.254,"lo1":-89.0895,"lo2":-89.0443,"dy":0.0025,"dx":0.0025,"nx":19,"ny":19,"refTime":"2026-05-23T03:00:00:Z","depth":0,"parameterNumber":3,"parameterNumberName":"V-component_of_WINDS"},"data":[0,0,0,0.0883,0.0884,0.097,0.097,0.1063,0.1063,0,0,0,0,0,0,0,0,0,0,0,0.0846,0.0847,0.0883,0.0884,0.097,0.097,0.1062,0.1063,0,0,0,0,0,0,0,0,0,0,0,0.0846,0.0847,0.0847,0.0885,0.097,0.0971,0.1062,0.1004,0,0,0,0,0,0,0,0,0,0,0.0924,0.088,0.0847,0.0847,0.0885,0.097,0.0971,0.1001,0.1008,0.1016,0,0.1021,0,0.1043,0.1068,0.1069,0,0,0,0.0893,0.0874,0.0907,0.0847,0.0886,0.097,0.0934,0.1005,0.1012,0.1024,0.1022,0.1026,0.1045,0.1069,0.1069,0.109,0.109,0,0,0.0888,0.0856,0.0902,0.0911,0.0896,0.0931,0.0936,0.101,0.1005,0.1022,0.1028,0.1046,0.1069,0.107,0.109,0.109,0,0,0,0.0869,0.0852,0.0884,0.0907,0.0924,0.0933,0.0939,0.1002,0.1015,0.103,0.1047,0.107,0.1071,0.1091,0.109,0.1044,0,0,0,0.0866,0.0841,0.0881,0.0863,0.0922,0.0964,0.093,0.101,0.1019,0.1047,0.107,0.1071,0.1091,0.109,0.1046,0.1028,0,0,0,0.0845,0.0839,0.0848,0.0861,0.0897,0.0963,0.0981,0.1013,0.103,0.1069,0.1072,0.1091,0.109,0.1048,0.1031,0.1024,0,0,0,0.0812,0.0806,0.0846,0.0846,0.0896,0.0934,0.0981,0.1011,0.1039,0.107,0.1091,0.109,0.1049,0.1033,0.1025,0.1012,0.1003,0,0,0.0787,0.0802,0.0804,0.0843,0.0866,0.0924,0.0941,0.0997,0.103,0.1068,0.1069,0.1046,0.1031,0.1024,0.0966,0.0959,0,0,0,0.0785,0.0786,0.08,0.0825,0.0867,0.0902,0.0959,0.0979,0.1013,0.1043,0.1042,0.1035,0.1032,0.1027,0.1021,0.102,0.1086,0.1087,0.1087,0.0703,0.0745,0.0752,0.0805,0.0828,0.0887,0.091,0.0948,0.0984,0.0983,0.0995,0.0954,0.0947,0.0943,0.0942,0.0991,0.0991,0.0991,0.0991,0.0669,0.0677,0.0725,0.0749,0.0794,0.0815,0.0871,0.0896,0.0921,0.0949,0.0949,0.0975,0.0933,0.0935,0.0988,0.0988,0.0989,0.0989,0.0989,0.0619,0.0631,0.0656,0.0696,0.0722,0.0776,0.0799,0.0839,0.0877,0.0877,0.0893,0.0894,0.09,0.0882,0.0882,0.0882,0.0881,0.0881,0.0881,0.0558,0.0588,0.0602,0.0646,0.0667,0.07,0.0758,0.0781,0.0815,0.0843,0.0844,0.0879,0.0922,0.0931,0.0879,0.088,0.088,0.088,0.088,0.0507,0.0525,0.0546,0.0567,0.0622,0.0645,0.0697,0.0738,0.0762,0.0772,0.0808,0.0833,0.0852,0.0857,0.0865,0.0799,0.0799,0.0799,0.0799,0.0465,0.0479,0.0509,0.054,0.0575,0.0623,0.0646,0.0691,0.0741,0.0759,0.0774,0.0789,0.0792,0.0809,0.0815,0.0823,0.0748,0.0748,0.0748,0.0436,0.0455,0.0466,0.0515,0.0561,0.0599,0.0622,0.0655,0.0716,0.0747,0.0773,0.0775,0.0799,0.0805,0.0836,0.0845,0.0861,0,0]}]]